Las Palmas de Gran Canaria, Spain

6:10 PM WET on March 25, 2017 (GMT +0000)
Las Palmas de Gran Canaria

Weather History for GCLP - May, 2012

Change the Weather History Date:

Saturday, May 12, 2012

  Actual Average Record
Temperature  
Mean Temperature 76 °F -  
Max Temperature 81 °F 73 °F 84 °F (2007)
Min Temperature 71 °F 63 °F 60 °F (2000)
Cooling Degree Days 11    
Growing Degree Days 26 (Base 50)    
Moisture  
Dew Point 56 °F    
Average Humidity 45    
Maximum Humidity 69    
Minimum Humidity 18    
Precipitation  
Precipitation 0.00 in 0.00 in - ()
Sea Level Pressure  
Sea Level Pressure 30.03 in    
Wind  
Wind Speed 21 mph ()    
Max Wind Speed 26 mph    
Max Gust Speed 38 mph    
Visibility 8.6 miles    
Events      
Averages and records for this station are not official NWS values.
T = Trace of Precipitation, MM = Missing Value Source: Averaged Metar Reports

Daily Weather History Graph

Daily Weather History Graph

Search for Another Location

Airport or City:

Trip Planner

Search our weather history database for the weather conditions in past years. The results will help you decide how hot, cold, wet, or windy it might be!

Date:

Astronomy

May. 12, 2012 Rise Set
Actual Time 7:13 AM WEST 8:42 PM WEST
Civil Twilight 6:48 AM WEST 9:07 PM WEST
Nautical Twilight 6:17 AM WEST 9:38 PM WEST
Astronomical Twilight 5:46 AM WEST 10:09 PM WEST
Moon 1:58 AM WEST (5/12) 1:28 PM WEST (5/12)
Length of Visible Light 14h 19m
Length of Day
13h 28m
Waning Gibbous, 55% of the Moon is Illuminated
May 12
Waning Gibbous
May 12
Last Quarter
May 21
New
May 28
First Quarter
Jun 4
Full

Hourly Weather History & Observations

Time (WEST) Temp. Heat Index Dew Point Humidity Pressure Visibility Wind Dir Wind Speed Gust Speed Precip Events Conditions
12:00 AM 76 °F - 54 °F 37% 30.07 in - North 26.5 mph - -  
12:00 AM 77.0 °F - 57.2 °F 50% 30.09 in 6.2 mi North 25.3 mph - N/A   Scattered Clouds
12:30 AM 77.0 °F - 55.4 °F 47% 30.09 in 6.2 mi North 23.0 mph - N/A   Scattered Clouds
1:00 AM 75 °F - 53 °F 35% 30.07 in 6 mi North 25.3 mph - -   Scattered Clouds
1:00 AM 77.0 °F - 53.6 °F 44% 30.09 in 6.2 mi North 24.2 mph 36.8 mph N/A   Scattered Clouds
1:30 AM 77.0 °F - 53.6 °F 44% 30.09 in 6.2 mi North 24.2 mph - N/A   Scattered Clouds
2:00 AM 76 °F - 48 °F 26% 30.06 in - North 26.5 mph - -  
2:00 AM 77.0 °F - 50.0 °F 39% 30.09 in 6.2 mi North 25.3 mph 38.0 mph N/A   Scattered Clouds
2:30 AM 77.0 °F - 48.2 °F 36% 30.06 in 6.2 mi North 24.2 mph - N/A   Partly Cloudy
3:00 AM 76 °F - 45 °F 23% 30.04 in - North 25.3 mph - -  
3:00 AM 77.0 °F - 48.2 °F 36% 30.06 in - North 25.3 mph - N/A   Clear
3:30 AM 77.0 °F - 46.4 °F 34% 30.06 in - North 21.9 mph - N/A   Clear
4:00 AM 77.0 °F - 44.6 °F 32% 30.04 in - North 24.2 mph - N/A   Clear
4:30 AM 77.0 °F - 44.6 °F 32% 30.04 in - North 19.6 mph - N/A   Clear
5:00 AM 76 °F - 42 °F 19% 30.00 in - North 20.7 mph - -  
5:00 AM 78.8 °F - 44.6 °F 30% 30.04 in - North 19.6 mph - N/A   Clear
5:30 AM 73.4 °F - 53.6 °F 50% 30.04 in - NNE 23.0 mph - N/A   Clear
6:00 AM 72 °F - 49 °F 34% 30.00 in - North 23.0 mph - -  
6:00 AM 73.4 °F - 50.0 °F 44% 30.04 in - North 23.0 mph - N/A   Clear
6:30 AM 77.0 °F - 46.4 °F 34% 30.04 in - North 18.4 mph - N/A   Clear
7:00 AM 76 °F - 41 °F 18% 30.00 in 19 mi North 16.1 mph - -   Clear
7:00 AM 77.0 °F - 44.6 °F 32% 30.04 in - North 15.0 mph - N/A   Clear
7:30 AM 73.4 °F - 55.4 °F 53% 30.04 in - NNE 16.1 mph - N/A   Clear
8:00 AM 71 °F - 57 °F 52% 30.00 in - NNE 17.3 mph - -  
8:00 AM 73.4 °F - 57.2 °F 57% 30.04 in - NNE 16.1 mph - N/A   Clear
8:30 AM 71.6 °F - 60.8 °F 69% 30.04 in - NNE 23.0 mph - N/A   Clear
9:00 AM 73 °F - 56 °F 46% 30.03 in - North 25.3 mph - -  
9:00 AM 73.4 °F - 57.2 °F 57% 30.06 in - North 23.0 mph - N/A   Clear
9:30 AM 75.2 °F - 57.2 °F 53% 30.06 in - North 24.2 mph - N/A   Clear
10:00 AM 77.0 °F - 57.2 °F 50% 30.06 in - North 24.2 mph - N/A   Clear
10:30 AM 77.0 °F - 59.0 °F 54% 30.06 in - NNE 25.3 mph - N/A   Clear
11:00 AM 78 °F - 58 °F 39% 30.04 in - North 24.2 mph - -  
11:00 AM 78.8 °F - 59.0 °F 51% 30.06 in - NNE 23.0 mph - N/A   Clear
11:30 AM 78.8 °F - 59.0 °F 51% 30.06 in - NNE 24.2 mph - N/A   Clear
12:00 PM 79 °F - 59 °F 40% 30.04 in - NNE 25.3 mph - -  
12:00 PM 78.8 °F - 60.8 °F 54% 30.06 in - NNE 25.3 mph - N/A   Clear
12:30 PM 80.6 °F 81.5 °F 60.8 °F 51% 30.06 in - NNE 24.2 mph - N/A   Clear
1:00 PM 79 °F - 60 °F 41% 30.04 in 12 mi North 25.3 mph - -   Clear
1:00 PM 78.8 °F - 62.6 °F 57% 30.06 in - NNE 20.7 mph - N/A   Clear
1:30 PM 78.8 °F - 62.6 °F 57% 30.06 in - NE 18.4 mph - N/A   Clear
2:00 PM 80 °F - 60 °F 40% 30.02 in - NNE 23.0 mph - -  
2:00 PM 80.6 °F 81.8 °F 62.6 °F 54% 30.04 in - NNE 23.0 mph - N/A   Clear
2:30 PM 80.6 °F 81.8 °F 62.6 °F 54% 30.04 in - NNE 21.9 mph - N/A   Clear
3:00 PM 79 °F - 61 °F 43% 30.01 in - NNE 23.0 mph - -  
3:00 PM 80.6 °F 81.8 °F 62.6 °F 54% 30.04 in - NNE 21.9 mph - N/A   Clear
3:30 PM 80.6 °F 81.8 °F 62.6 °F 54% 30.04 in - NNE 20.7 mph - N/A   Clear
4:00 PM 82.4 °F 83.4 °F 62.6 °F 51% 30.04 in - NNE 20.7 mph - N/A   Clear
4:30 PM 82.4 °F 83.4 °F 62.6 °F 51% 30.01 in - NNE 20.7 mph - N/A   Clear
5:00 PM 79 °F - 61 °F 44% 29.99 in - NNE 21.9 mph - -  
5:00 PM 80.6 °F 81.8 °F 62.6 °F 54% 30.01 in - NNE 21.9 mph - N/A   Clear
5:30 PM 80.6 °F 81.8 °F 62.6 °F 54% 30.01 in - NNE 20.7 mph - N/A   Clear
6:00 PM 80 °F - 60 °F 39% 29.98 in - NNE 23.0 mph - -  
6:00 PM 80.6 °F 81.5 °F 60.8 °F 51% 30.01 in - NNE 21.9 mph - N/A   Clear
6:30 PM 80.6 °F 81.8 °F 62.6 °F 54% 30.01 in - NNE 21.9 mph - N/A   Clear
7:00 PM 79 °F - 60 °F 42% 29.96 in 12 mi NNE 21.9 mph - -   Clear
7:00 PM 80.6 °F 81.5 °F 60.8 °F 51% 29.98 in - NNE 21.9 mph - N/A   Clear
7:30 PM 78.8 °F - 62.6 °F 57% 29.98 in - NNE 20.7 mph - N/A   Clear
8:00 PM 78 °F - 60 °F 44% 29.96 in - North 21.9 mph - -  
8:00 PM 80.6 °F 81.5 °F 60.8 °F 51% 29.98 in - North 20.7 mph - N/A   Clear
8:30 PM 78.8 °F - 60.8 °F 54% 29.98 in - North 18.4 mph - N/A   Clear
9:00 PM 76 °F - 59 °F 46% 29.96 in - North 20.7 mph - -  
9:00 PM 78.8 °F - 60.8 °F 54% 29.98 in - NNE 19.6 mph - N/A   Clear
9:30 PM 77.0 °F - 60.8 °F 57% 29.98 in - NNE 21.9 mph - N/A   Clear
10:00 PM 78.8 °F - 59.0 °F 51% 30.01 in - North 19.6 mph - N/A   Clear
10:30 PM 78.8 °F - 57.2 °F 47% 30.01 in - North 17.3 mph - N/A   Clear
11:00 PM 77 °F - 54 °F 34% 29.98 in - North 18.4 mph - -  
11:00 PM 78.8 °F - 55.4 °F 44% 30.01 in - North 17.3 mph - N/A   Clear
11:30 PM 78.8 °F - 55.4 °F 44% 30.01 in - North 16.1 mph - N/A   Clear